Location: Saratoga Springs
(43.0831°N, 73.7850°W)
Time: 13:26:04
(UTC-04:00)

Transit 4A - Pass Details

Date: 22 April 2024
Orbit: 871 x 971 km, 66.8° (Epoch: 20 May)

Event Time Altitude Azimuth Distance (km) Brightness Sun altitude
Rises 20:14:44 0° 336° (NNW) 3,470 11.7 -5.6°
Reaches altitude 10° 20:17:50 10° 351° (N) 2,527 10.7 -6.1°
Maximum altitude 20:22:15 22° 41° (NE) 1,832 9.3 -6.9°
Drops below altitude 10° 20:26:41 10° 91° (E) 2,535 9.6 -7.6°
Enters shadow 20:27:27 - 95° (E) 2,754 9.8 -7.7°
